Flag for Iran Weather past 2 weeks in Rafsanjan, Iran

Now
52 °F

Clear.


Feels Like: 47 °F
Forecast: 35 / 66 °F
Wind: 16 mph from West

Location: Kerman Airport

Current Time: Mar 4, 2015 at 4:14:02 AM

Latest Report: Mar 4, 2015 at 3:30 AM


Visibility: 10 mi

Pressure: 29.89 "Hg

Humidity: 20%

Dew point: 12 °F

Location of RafsanjanLocation

Historic Weather in Rafsanjan — Graph

°F

Rafsanjan temperature yesterday

Maximum temperature yesterday: 63 °F (at 3:00 PM)
Minimum temperature yesterday: 41 °F (at 6:30 AM)
Average temperature yesterday: 52 °F

Past Weeks' High & Low Weather Summary

 TemperatureHumidityPressure
High72 °F (Feb 18, 1:00 PM)100% (Feb 19, 9:30 PM)30.24 "Hg (Feb 19, 9:30 PM)
Low21 °F (Mar 1, 4:30 AM)11% (Mar 3, 2:30 PM)29.77 "Hg (Feb 21, 2:30 PM)
Average45 °F53%30.02 "Hg
* Reported Feb 17 2:30 AM — Mar 4 2:30 AM, Rafsanjan, Weather by CustomWeather, © 2015

Note: Actual official high and low records may vary slightly from our data, if they occured in-between our weather recording intervals... More about our weather records

Advertising

Rafsanjan weather history for previous 24 hours

 ConditionsComfort  
Time TempWeatherWind HumidityBarometerVisibility
2:30 AM
Wed, Mar 4
52 °FClear.12 mph20%29.86 "Hg10 mi
1:30 AM48 °FClear.7 mph32%29.89 "Hg10 mi
12:30 AM45 °FClear.5 mph39%29.89 "Hg10 mi
11:30 PM
Tue, Mar 3
45 °FClear.No wind39%29.92 "Hg10 mi
10:30 PM46 °FClear.7 mph37%29.95 "Hg10 mi
9:30 PM46 °FClear.7 mph32%29.95 "Hg10 mi
8:30 PM48 °FClear.5 mph27%29.98 "Hg10 mi
7:30 PM50 °FClear.5 mph24%29.98 "Hg10 mi
6:30 PM54 °FClear.5 mph21%29.95 "Hg10 mi
5:30 PM61 °FSunny.7 mph16%29.95 "Hg10 mi
4:30 PM63 °FSunny.14 mph15%29.95 "Hg10 mi
3:30 PM63 °FSunny.14 mph13%29.98 "Hg10 mi
3:00 PM63 °FSunny.14 mph13%29.98 "Hg10 mi
2:30 PM61 °FSunny.12 mph11%29.98 "Hg10 mi
2:00 PM59 °FSunny.14 mph13%29.98 "Hg10 mi
1:30 PM59 °FSunny.16 mph14%30.01 "Hg10 mi
1:00 PM57 °FSunny.22 mph18%30.01 "Hg10 mi
12:30 PM57 °FSunny.26 mph18%30.04 "Hg10 mi
12:00 PM57 °FSunny.16 mph20%30.04 "Hg10 mi
11:30 AM55 °FSunny.21 mph23%30.04 "Hg10 mi
11:00 AM55 °FSunny.5 mph23%30.07 "Hg10 mi
10:30 AM54 °FSunny.9 mph24%30.07 "Hg10 mi
10:00 AM52 °FSunny.18 mph26%30.09 "Hg10 mi
9:30 AM52 °FSunny.16 mph26%30.09 "Hg10 mi
9:00 AM50 °FSunny.12 mph25%30.07 "Hg10 mi
8:30 AM48 °FSunny.12 mph32%30.07 "Hg10 mi
8:00 AM48 °FSunny.14 mph32%30.07 "Hg10 mi
7:30 AM45 °FSunny.12 mph34%30.04 "Hg10 mi
6:30 AM41 °FClear.7 mph33%30.01 "Hg10 mi
5:30 AM43 °FClear.7 mph26%29.98 "Hg10 mi
4:30 AM46 °FClear.9 mph21%29.95 "Hg10 mi
Weather by CustomWeather, © 2015

See weather overviewHow to use our weather pages